[Iaude] MPEC J86: 2024 JY1 [a=2.06,e=0.52,i=8.1,H=23.8]

mpec at cfa.harvard.edu mpec at cfa.harvard.edu
Sun May 5 13:27:26 EDT 2024


M.P.E.C. 2024-J86                                   Issued 2024 May 5, 17:25 UT

     The Minor Planet Electronic Circulars contain information on unusual
         minor planets, routine data on comets and natural satellites,
         and occasional editorial announcements.  They are published
    on behalf of Division F of the International Astronomical Union by the
          Minor Planet Center, Smithsonian Astrophysical Observatory,
                          Cambridge, MA 02138, U.S.A.
			  
             Prepared using the Tamkin Foundation Computer Network

                              MPC at CFA.HARVARD.EDU
            URL https://www.minorplanetcenter.net/    ISSN 1523-6714

                                    2024 JY1                                    


Observations:
     K24J01Y*1C2024 05 03.39679915 35 39.714+09 22 25.03         20.44GVEJ086G96
     K24J01Y 1C2024 05 03.40195215 35 40.502+09 22 23.92         20.62GVEJ086G96
     K24J01Y 1C2024 05 03.40710315 35 41.262+09 22 22.30         21.09GVEJ086G96
     K24J01Y 1C2024 05 03.41226415 35 42.076+09 22 20.96         20.99GVEJ086G96
     K24J01Y KC2024 05 03.46170615 35 49.686+09 22 06.24         20.40GVEJ086I52
     K24J01Y KC2024 05 03.46511015 35 50.233+09 22 05.74         21.49GVEJ086I52
     K24J01Y KC2024 05 03.46851215 35 50.766+09 22 04.01         21.74GVEJ086I52
     K24J01Y KC2024 05 03.47192015 35 51.252+09 22 03.40         20.93GVEJ086I52
     K24J01Y KC2024 05 04.21270915 38 05.99 +09 18 19.3          20.9 GVEJ086H21
     K24J01Y KC2024 05 04.21555415 38 06.45 +09 18 18.2          20.7 GVEJ086H21
     K24J01Y KC2024 05 04.21839815 38 06.90 +09 18 17.2          21.0 GVEJ086H21
     K24J01Y KC2024 05 04.34813915 38 29.324+09 17 42.32         20.41GVEJ086I52
     K24J01Y KC2024 05 04.35286415 38 30.066+09 17 39.41         20.85GVEJ086I52
     K24J01Y KC2024 05 04.35517315 38 30.451+09 17 38.98         21.10GVEJ086I52
     K24J01Y !C2024 05 04.35671 15 38 31.12 +09 17 36.3          20.7 GVEJ086673
     K24J01Y KC2024 05 04.35989815 38 31.236+09 17 37.64         20.75GVEJ086I52
     K24J01Y !C2024 05 04.36065 15 38 31.74 +09 17 35.0                VEJ086673
     K24J01Y 1C2024 05 04.96439 15 40 25.84 +09 13 37.8          20.7 VXEJ086033
     K24J01Y 1C2024 05 04.96589 15 40 26.11 +09 13 37.4          20.5 VXEJ086033

Observer details:
033 Karl Schwarzschild Observatory, Tautenburg.  Observers S. Melnikov, C.
    Hogner, F. Ludwig, M. Hartmann, B. Stecklum.  Measurer B. Stecklum.
    1.34-m f/3 Schmidt + CCD.
673 Table Mountain Observatory, Wrightwood.  Observer J. Pittichova.  1.0-m
    f/15 reflector + CCD.
G96 Mt. Lemmon Survey.  Observer H. Groeller.  Measurers T. Beuden, V. F.
    Carvajal, D. Fay, J. B. Fazekas, D. C. Fuls, A. R. Gibbs, A. D. Grauer, H.
    Groeller, J. K. Hogan, R. A. Kowalski, S. M. Larson, G. J. Leonard, D.
    Rankin, R. L. Seaman, F. C. Shelly, K. W. Wierzchos.  1.5-m reflector +
    10K CCD.
H21 Astronomical Research Observatory, Westfield.  Observer R. Holmes.
    Measurers T. Linder, R. Holmes, L. Horn.  0.81-m f/4.0 astrograph + CCD.
I52 Steward Observatory, Mt. Lemmon Station.  Observer V. F. Carvajal.
    Measurers T. Beuden, V. F. Carvajal, D. Fay, J. B. Fazekas, D. C. Fuls, A.
    R. Gibbs, A. D. Grauer, H. Groeller, J. K. Hogan, R. A. Kowalski, S. M.
    Larson, G. J. Leonard, D. Rankin, R. L. Seaman, F. C. Shelly, K. W.
    Wierzchos.  1.0-m prime focus + CCD.

Orbital elements:
2024 JY1                                                 Earth MOID = 0.0128 AU
Epoch 2024 Mar. 31.0 TT = JDT 2460400.5                 MPC                     
M 333.60198              (2000.0)            P               Q                  
n   0.33268341     Peri.  204.78982     +0.07260969     +0.98863629             
a   2.0627596      Node    69.59785     -0.89004112     +0.12378474             
e   0.5152072      Incl.    8.07323     -0.45006071     -0.08529725             
P   2.96           H   23.84          G   0.15           U   9                  
Residuals in seconds of arc
240503 G96  0.0   0.1-    240503 I52  0.6-  0.0     240504 673  0.1+  0.3-
240503 G96  0.1+  0.2+    240504 H21  0.1+  0.0     240504 I52  0.3+  0.3+
240503 G96  0.2-  0.0     240504 H21  0.0   0.2-    240504 673  0.2-  0.2-
240503 G96  0.2+  0.1+    240504 H21  0.2-  0.3-    240504 033  0.1-  0.1-
240503 I52  0.1-  0.3-    240504 I52  0.2+  1.0+    240504 033  0.1-  0.1+
240503 I52  0.1+  0.3+    240504 I52  0.2-  0.3-
240503 I52  0.1+  0.4-    240504 I52  0.0   0.0

Ephemeris:
2024 JY1                 a,e,i = 2.06, 0.52, 8                   q = 1.0000
Date    TT    R. A. (2000) Decl.     Delta      r    Elong.  Phase     V
2024 04 05    14 51 00.5 +07 22 33   0.3634  1.3239   148.5    23.3    23.4
...
2024 04 20    15 09 14.5 +09 03 16   0.2424  1.2237   151.9    22.8    22.3
...
2024 04 28    15 22 43.6 +09 30 13   0.1861  1.1743   152.0    23.8    21.7
...
2024 05 04    15 37 26.2 +09 19 58   0.1471  1.1398   151.6    24.9    21.1
2024 05 05    15 40 32.0 +09 14 06   0.1408  1.1343   151.5    25.1    21.0
2024 05 06    15 43 52.6 +09 06 38   0.1347  1.1289   151.4    25.3    20.9
...
2024 05 12    16 11 28.8 +07 33 36   0.09939 1.0981   150.9    26.6    20.2
...
2024 05 20    17 32 09.3 +00 46 45   0.05959 1.0624   147.1    31.2    19.2
...
2024 06 04    23 30 40.4 -21 24 59   0.06551 1.0154    89.0    87.3    21.0

A. U. Tomatic                (C) Copyright 2024 MPC           M.P.E.C. 2024-J86





More information about the Iaude mailing list